Location: Bj�rn�ya
(74.5000°N, 19.0000°E)
Time: 21:18:03
(UTC+01:00)

N. Korean satellite - Visible Passes

Search period start: 16 January 2022 00:00
Search period end: 26 January 2022 00:00
Orbit: 446 x 492 km, 97.3° (Epoch: 16 January)

Date Brightness Start Highest point End Pass type
(mag) Time Alt. Az. Time Alt. Az. Time Alt. Az.
16 Jan 9.4 03:45:18 10° NE 03:47:44 17° E 03:50:11 10° ESE visible
16 Jan 7.7 05:18:16 10° NNE 05:21:43 44° ESE 05:25:12 10° S visible
16 Jan 6.4 06:51:32 10° NNE 06:55:05 69° NW 06:58:41 10° SW visible
16 Jan 7.2 08:24:44 10° NNE 08:27:58 33° NNW 08:31:14 10° W visible
16 Jan 7.7 09:57:37 10° NE 10:00:30 24° N 10:03:25 10° WNW visible
16 Jan 7.1 13:02:15 10° ESE 13:05:31 36° NE 13:08:49 10° NNW visible
16 Jan 6.4 14:34:56 10° SE 14:38:27 80° ENE 14:42:02 10° NNW visible
16 Jan 8.2 16:08:39 10° SSW 16:11:55 36° W 16:15:16 10° NNW visible
16 Jan 9.7 17:44:04 10° WSW 17:46:03 14° WNW 17:48:03 10° NW visible
17 Jan 9.8 03:16:33 10° NE 03:18:17 13° ENE 03:20:02 10° ESE visible
17 Jan 8.3 04:49:12 10° NNE 04:52:29 32° E 04:55:46 10° SSE visible
17 Jan 6.5 06:22:26 10° NNE 06:26:01 89° ESE 06:29:39 10° SSW visible
17 Jan 7.0 07:55:40 10° NNE 07:59:02 40° NW 08:02:26 10° WSW visible
17 Jan 7.6 09:28:41 10° NE 09:31:39 25° NNW 09:34:39 10° WNW visible
17 Jan 6.5 14:05:55 10° SE 14:09:24 60° NE 14:12:56 10° NNW visible
17 Jan 7.5 15:39:15 10° S 15:42:41 50° WSW 15:46:12 10° NNW visible
17 Jan 9.4 17:14:01 10° SW 17:16:36 19° W 17:19:13 10° NW visible
18 Jan 8.9 04:20:09 10° NNE 04:23:09 24° E 04:26:09 10° SE visible
18 Jan 6.9 05:53:18 10° NNE 05:56:53 65° ESE 06:00:30 10° SSW visible
18 Jan 6.7 07:26:34 10° NNE 07:30:03 50° NW 07:33:34 10° WSW visible
18 Jan 7.5 08:59:40 10° NE 09:02:46 28° NNW 09:05:53 10° W visible
18 Jan 6.8 13:36:58 10° ESE 13:40:22 46° NE 13:43:50 10° NNW visible
18 Jan 6.8 15:09:58 10° SSE 15:13:29 71° WSW 15:17:05 10° NNW visible
18 Jan 8.9 16:44:13 10° SSW 16:47:12 25° W 16:50:14 10° NNW visible
18 Jan 10.1 18:21:14 10° WNW 18:21:35 10° WNW 18:21:55 10° WNW visible
19 Jan 9.4 03:51:09 10° NE 03:53:43 18° E 03:56:19 10° SE visible
19 Jan 7.6 05:24:09 10° NNE 05:27:40 47° ESE 05:31:11 10° S visible
19 Jan 6.5 06:57:25 10° NNE 07:00:59 65° NW 07:04:35 10° SW visible
19 Jan 7.3 08:30:36 10° NNE 08:33:49 32° NNW 08:37:05 10° W visible
19 Jan 7.7 10:03:27 10° NE 10:06:21 23° N 10:09:17 10° WNW visible
19 Jan 6.5 14:40:47 10° SSE 14:44:19 85° ENE 14:47:56 10° NNW visible
19 Jan 8.3 16:14:34 10° SSW 16:17:51 34° W 16:21:09 10° NNW visible
19 Jan 9.8 17:50:08 10° WSW 17:52:00 14° WNW 17:53:53 10° NW visible
20 Jan 9.8 03:22:16 10° NE 03:24:13 14° ENE 03:26:10 10° ESE visible
20 Jan 8.2 04:55:01 10° NNE 04:58:22 34° E 05:01:43 10° SSE visible
20 Jan 6.5 06:28:14 10° NNE 06:31:51 86° NW 06:35:31 10° SSW visible
20 Jan 7.0 08:01:29 10° NNE 08:04:50 38° NW 08:08:14 10° WSW visible
20 Jan 7.7 09:34:27 10° NE 09:37:25 25° NNW 09:40:27 10° WNW visible
20 Jan 6.5 14:11:41 10° SE 14:15:12 64° NE 14:18:46 10° NNW visible
20 Jan 7.7 15:45:05 10° S 15:48:31 47° WSW 15:52:02 10° NNW visible
20 Jan 9.5 17:19:57 10° SW 17:22:28 18° W 17:25:01 10° NW visible
21 Jan 10.0 02:53:57 10° ENE 02:54:37 10° ENE 02:55:17 10° ENE visible
21 Jan 8.8 04:25:53 10° NNE 04:28:58 26° E 04:32:04 10° SSE visible
21 Jan 6.8 05:59:03 10° NNE 06:02:40 70° ESE 06:06:18 10° SSW visible
21 Jan 6.8 07:32:18 10° NNE 07:35:47 48° NW 07:39:18 10° WSW visible
21 Jan 7.5 09:05:23 10° NE 09:08:29 27° NNW 09:11:36 10° W visible
21 Jan 6.8 13:42:39 10° ESE 13:46:05 49° NE 13:49:35 10° NNW visible
21 Jan 7.0 15:15:42 10° SSE 15:19:14 66° WSW 15:22:50 10° NNW visible
21 Jan 9.1 16:50:02 10° SW 16:52:59 24° W 16:55:58 10° NNW visible
22 Jan 9.3 03:56:47 10° NE 03:59:29 19° E 04:02:11 10° SE visible
22 Jan 7.4 05:29:50 10° NNE 05:33:23 50° ESE 05:36:57 10° S visible
22 Jan 6.5 07:03:05 10° NNE 07:06:40 62° NW 07:10:16 10° SW visible
22 Jan 7.3 08:36:15 10° NNE 08:39:29 31° NNW 08:42:44 10° W visible
22 Jan 6.6 14:46:25 10° SSE 14:49:59 90° SW 14:53:37 10° NNW visible
22 Jan 8.5 16:20:18 10° SSW 16:23:32 32° W 16:26:49 10° NNW visible
22 Jan 9.8 17:56:00 10° WSW 17:57:43 13° WNW 17:59:28 10° NW visible
23 Jan 9.7 03:27:48 10° NE 03:29:55 15° ENE 03:32:03 10° ESE visible
23 Jan 8.1 05:00:37 10° NNE 05:04:01 37° E 05:07:26 10° SSE visible
23 Jan 6.5 06:33:51 10° NNE 06:37:29 82° WNW 06:41:08 10° SW visible
23 Jan 7.1 08:07:04 10° NNE 08:10:25 37° NW 08:13:48 10° WSW visible
23 Jan 7.7 09:40:01 10° NE 09:42:59 25° NNW 09:46:01 10° WNW visible
23 Jan 6.5 14:17:14 10° SE 14:20:46 68° NE 14:24:23 10° NNW visible
23 Jan 7.8 15:50:42 10° S 15:54:07 44° WSW 15:57:38 10° NNW visible
23 Jan 9.6 17:25:40 10° SW 17:28:07 17° W 17:30:35 10° NW visible
24 Jan 9.9 02:59:10 10° NE 03:00:15 11° ENE 03:01:21 10° E visible
24 Jan 8.7 04:31:24 10° NNE 04:34:34 27° E 04:37:44 10° SSE visible
24 Jan 6.7 06:04:35 10° NNE 06:08:13 74° ESE 06:11:53 10° SSW visible
24 Jan 6.8 07:37:49 10° NNE 07:41:18 46° NW 07:44:48 10° WSW visible
24 Jan 7.6 09:10:53 10° NE 09:13:59 27° NNW 09:17:05 10° W visible
24 Jan 7.1 15:21:13 10° SSE 15:24:45 62° WSW 15:28:22 10° NNW visible
24 Jan 9.2 16:55:38 10° SW 16:58:32 23° W 17:01:29 10° NNW visible
25 Jan 9.2 04:02:13 10° NE 04:05:01 20° E 04:07:50 10° SE visible
25 Jan 7.3 05:35:18 10° NNE 05:38:52 54° ESE 05:42:28 10° S visible
25 Jan 6.6 07:08:33 10° NNE 07:12:08 59° NW 07:15:44 10° SW visible
25 Jan 7.4 08:41:42 10° NE 08:44:54 31° NNW 08:48:09 10° W visible
25 Jan 6.6 14:51:50 10° SSE 14:55:26 85° WSW 14:59:04 10° NNW visible
25 Jan 8.6 16:25:48 10° SSW 16:29:00 31° W 16:32:17 10° NNW visible
25 Jan 9.9 18:01:39 10° W 18:03:13 12° WNW 18:04:50 10° NW visible
